Location: Smithers
(54.7670°N, 127.1670°W)
Time: 12:05:06
(UTC-07:00)

Daily predictions for brighter satellites

Satellite Brightness Start Highest point End
(mag) Time Altitude Azimuth Time Altitude Azimuth Time Altitude Azimuth
Meteor 1-28 Rocket 3.6 19:49:28 10° NNE 19:53:02 40° E 19:56:33 10° SSE
H-2A R/B 3.8 19:49:59 10° ESE 19:53:21 28° ENE 19:56:43 10° N
Cosmos 1378 3.1 19:49:53 10° N 19:53:38 69° ENE 19:57:22 10° SSE
Cosmos 1464 Rocket 4.4 19:48:48 10° SSE 19:54:34 41° E 20:00:19 10° NNE
H-2A R/B 4.2 19:53:33 10° ENE 19:54:48 11° NE 19:56:02 10° NNE
Cosmos 1346 4.4 19:53:28 10° NNE 19:55:53 22° ENE 19:58:17 10° ESE
Cosmos 1707 3.6 19:53:28 10° NNW 19:57:16 54° W 20:01:02 10° S
COSMOS 2455 3.0 19:53:29 10° SW 19:59:32 87° NW 20:05:38 10° NE
Cosmos 2278 Rocket 3.9 19:55:32 10° NW 20:00:41 37° WSW 20:05:49 10° S
Cosmos 1076 Rocket 3.5 19:57:27 10° N 20:01:45 63° ENE 20:06:03 10° SSE
Meteor 1-22 Rocket 4.2 19:57:52 10° S 20:03:01 52° E 20:08:09 10° NNE
Cosmos 2360 Rocket 3.7 19:58:24 10° WSW 20:03:41 38° NW 20:08:59 10° NNE
Cosmos 2219 Rocket 2.3 19:58:20 10° SSW 20:03:59 90° WNW 20:09:43 10° NNE
Cosmos 2297 4.3 19:59:05 10° NW 20:04:42 60° WSW 20:10:15 10° SSE
Cosmos 1980 Rocket 4.5 20:01:20 10° WNW 20:05:11 18° NNW 20:09:00 10° NNE
SJ-6B 3.5 20:02:33 10° S 20:06:31 62° WSW 20:10:36 10° NNW
Meteor 1-24 Rocket 4.0 20:01:04 10° NNW 20:06:51 75° W 20:12:23 10° S
SKYMED 2 3.8 20:02:59 10° NNE 20:07:21 78° WNW 20:11:42 10° SSW
Helios 1B rocket 3.0 20:05:39 10° NNE 20:09:29 36° E 20:13:17 10° SSE
USA 215 4.0 20:04:14 10° ENE 20:10:00 32° SE 20:15:43 10° SSW
METEOR-M 4.2 20:05:12 10° SSE 20:10:35 87° WSW 20:15:59 10° NNW
Cosmos 2233 Rocket 4.2 20:05:10 10° S 20:11:30 85° W 20:17:53 10° N
Cosmos-2242 3.9 20:09:15 10° SSE 20:12:59 28° E 20:16:43 10° NNE
Cosmos 1452 Rocket 3.5 20:08:42 10° NNW 20:14:01 85° ENE 20:19:17 10° SSE
Cosmos 1500 Rocket 4.4 20:10:30 10° N 20:14:29 32° ENE 20:18:27 10° SE
Cosmos 1758 4.2 20:10:58 10° SSE 20:14:31 29° E 20:18:07 10° NNE
Cosmos 1408 Rocket 3.5 20:11:11 10° N 20:15:35 75° ENE 20:19:56 10° SSE
FENGYUN 3A 3.7 20:11:53 10° SSE 20:17:11 63° ENE 20:22:32 10° N
Cosmos 2112 Rocket 4.3 20:12:04 10° SSW 20:17:26 78° WNW 20:22:50 10° NNE
ERS-1 Rocket 4.0 20:14:41 10° ESE 20:18:53 29° ENE 20:23:10 10° N
SeaSat 1 3.8 20:16:09 10° ENE 20:19:16 17° ESE 20:22:24 10° SE
Cosmos 2369 Rocket 2.7 20:15:05 10° NNW 20:20:31 45° NE 20:25:24 13° ESE
Cosmos 1607 3.9 20:14:35 10° SSW 20:20:42 71° SE 20:26:51 10° NE
Cosmos 482 Debris 4.0 20:19:09 10° SW 20:21:11 36° SSE 20:23:06 16° E
Cosmos 1680 Rocket 4.1 20:17:17 10° SW 20:22:35 65° WNW 20:27:54 10° NNE
Cosmos 2151 4.2 20:22:14 10° N 20:25:42 24° ENE 20:28:00 15° ESE
Lacrosse 4 Rocket 3.9 20:23:36 10° WNW 20:26:51 19° NNW 20:30:06 10° NNE
CZ-4B DEB 2.7 20:23:37 10° SSE 20:26:52 68° ENE 20:30:09 10° N
Resurs 01 Rocket 2.0 20:23:12 10° S 20:27:38 68° WSW 20:32:06 10° NNW
Resurs 1-3 3.8 20:26:56 10° SSE 20:31:20 78° WSW 20:35:46 10° NNW
SL-16 R/B 4.4 20:27:13 10° WNW 20:31:24 21° NNW 20:35:37 10° NNE
Cosmos 1943 Rocket 3.2 20:26:29 10° NNW 20:31:34 32° NE 20:35:24 16° E
Cosmos 292 Rocket 3.9 20:27:55 10° SSW 20:32:45 85° WNW 20:37:38 10° NNE
ATLAS CENTAUR R/B 4.1 20:30:34 10° WNW 20:33:20 17° WSW 20:35:59 10° SSW
ATLAS 3B R/B 3.1 20:26:56 10° SW 20:34:32 77° NW 20:41:49 10° NE
Cosmos 1420 Rocket 4.0 20:32:39 10° NNW 20:37:59 80° ENE 20:43:18 10° SSE
Cosmos 1939 Rocket 3.9 20:36:32 18° ESE 20:38:34 28° ENE 20:41:59 10° N
Cosmos 1674 3.0 20:35:20 10° N 20:39:07 48° ENE 20:42:19 14° SE
Cosmos 2333 Rocket 2.6 20:33:58 10° SW 20:39:45 70° NW 20:45:32 10° NNE
FengYun 1-2 T 4.5 20:34:41 10° S 20:40:12 73° WSW 20:45:43 10° NNW
Cosmos 1743 Rocket 3.5 20:37:57 10° N 20:42:27 71° ENE 20:46:53 10° SSE
Cosmos 2058 4.1 20:40:33 10° N 20:43:56 24° ENE 20:45:11 21° E
CZ-4B DEB 4.5 20:43:17 10° SSE 20:46:54 75° ENE 20:50:31 10° NNW
Meteor 1-21 Rocket 4.2 20:41:22 10° NNW 20:47:00 85° WSW 20:52:33 10° S
CZ-4 DEB 3.8 20:46:40 25° E 20:47:17 27° ENE 20:50:00 10° N
NOSS 3-2 (A) 3.7 20:44:01 10° SSW 20:49:59 50° SE 20:56:32 10° NE
Cosmos 1867 4.0 20:45:10 10° WSW 20:50:38 67° NW 20:56:08 10° NE
GP-B 3.6 20:47:01 10° NNE 20:51:12 39° E 20:54:08 18° SE
ALOS 2.5 20:46:42 10° S 20:51:22 73° WSW 20:56:04 10° NNW
Cosmos 1766 3.8 20:48:54 10° SSW 20:52:51 64° WNW 20:56:51 10° N
Cosmos 1655 Rocket 4.4 20:47:44 10° N 20:53:38 41° ENE 20:57:35 20° SE
USA 238 DEB 3.7 20:48:01 10° SW 20:55:05 88° SE 21:02:11 10° NE
USA 238 3.7 20:48:06 10° SW 20:55:11 88° SE 21:02:17 10° NE
ERBS 2.5 20:53:13 10° WNW 20:56:44 67° NNE 20:58:17 30° E
SL-14 R/B 4.3 20:54:16 10° N 20:57:47 29° ENE 20:58:39 26° E
Nadezhda 4 Rocket 4.0 20:51:54 10° NNW 20:58:17 89° WSW 21:04:32 10° S
Exosat Rocket 4.3 20:53:47 10° NNW 20:59:35 64° NE 21:05:27 19° SE
COSMOS 2428 4.4 20:55:06 10° WSW 21:00:14 33° NW 21:05:25 10° NNE
Cosmos 1092 Rocket 3.9 20:57:06 10° N 21:03:23 78° ENE 21:09:35 10° SSE
H-2A R/B 3.7 21:05:04 15° ENE 21:06:22 16° NE 21:09:29 10° N
ASTEX 1 3.3 21:02:25 10° N 21:07:23 76° E 21:12:18 10° S
Cosmos 2237 Rocket 2.9 21:02:17 10° SW 21:07:52 55° NW 21:13:28 10° NNE
CZ-2D R/B 3.9 21:04:07 10° S 21:07:58 56° WSW 21:11:50 10° NNW
Sich 1 4.2 21:05:38 10° N 21:09:18 25° ENE 21:09:44 24° ENE
Cosmos 1953 2.3 21:05:52 10° SSW 21:09:52 85° WNW 21:13:53 10° N
USA 186 1.8 21:09:42 34° SSW 21:10:20 47° W 21:12:38 10° NNW
Aureole 2 Rocket 3.2 21:07:51 10° SW 21:12:13 72° WNW 21:16:27 10° NNE
Envisat 3.1 21:10:29 25° SE 21:13:23 59° ENE 21:18:24 10° N
YAOGAN 6 3.7 21:18:26 28° ENE 21:18:26 28° ENE 21:21:26 10° N
ATLAS 5 CENTAUR R/B 2.1 21:14:11 10° SSW 21:18:51 45° SE 21:23:28 12° ENE
Cosmos 2026 Rocket 3.9 21:13:58 10° N 21:20:01 63° ENE 21:23:48 24° SSE
Meteor 1-29 3.9 21:17:24 10° N 21:20:51 50° WNW 21:24:16 10° SW
Terra 3.6 21:22:27 16° ENE 21:22:57 16° NE 21:25:48 10° NNE
CZ-4C R/B 2.6 21:17:49 10° WSW 21:23:28 70° NW 21:30:00 10° NE
Cosmos 1634 Rocket 4.0 21:19:12 10° SSE 21:25:15 56° E 21:31:19 10° NNE
Cosmos 1805 Rocket 3.9 21:21:22 10° N 21:25:41 45° ENE 21:26:25 41° E
Cosmos 1805 3.8 21:22:14 10° SSW 21:26:08 60° WNW 21:30:04 10° N
SL-16 R/B 2.4 21:20:44 10° SW 21:26:26 76° NW 21:32:11 10° NNE
YAOGAN 11 3.9 21:24:35 31° SSE 21:26:38 86° ENE 21:30:58 10° NNW
NOSS 3-2 (C) 3.5 21:20:49 10° SSW 21:26:57 64° SE 21:33:47 10° NE
H-2A R/B 4.2 21:23:55 10° SSW 21:27:35 37° W 21:31:14 10° NNW
SPOT 1/Viking Rocket 4.3 21:27:34 32° E 21:28:41 35° ENE 21:33:20 10° N
Cosmos 1626 4.0 21:26:29 10° NNE 21:28:27 19° NE 21:28:27 19° NE
H-2A R/B 2.4 21:28:57 42° ESE 21:29:49 49° ENE 21:34:10 10° N
CENTAUR R/B 4.4 21:34:48 14° ENE 21:34:48 14° ENE 21:35:49 10° ENE
SJ-11-01 4.3 21:31:34 24° S 21:34:24 77° WSW 21:39:08 10° NNW
Cosmos 1544 3.7 21:36:19 10° SSW 21:40:01 58° WNW 21:43:45 10° N
Cosmos 1633 Rocket 3.6 21:36:58 10° N 21:40:58 39° ENE 21:40:58 39° ENE
Cosmos 2195 Rocket 4.5 21:35:06 10° NNW 21:41:27 88° W 21:45:53 21° S
MetOp-A 4.2 21:39:59 42° SE 21:41:39 61° ENE 21:46:57 10° N
ARGOS 3.6 21:43:17 40° E 21:44:22 45° ENE 21:49:31 10° N
Cosmos 1656 Rocket 4.1 21:39:11 10° NNW 21:44:23 43° NE 21:45:38 37° E
Cosmos 724 4.3 21:38:35 10° SSW 21:44:27 61° SE 21:50:30 10° NE
Helios 1B rocket 4.3 21:41:06 10° N 21:44:47 32° WNW 21:48:27 10° SW
SPOT 5 2.5 21:45:11 58° E 21:45:37 62° ENE 21:49:56 10° N
Cosmos 1703 4.0 21:42:16 10° N 21:45:21 38° NE 21:45:21 38° NE
COSMOS 2455 4.4 21:40:45 10° W 21:46:14 35° NNW 21:51:44 10° NE
Cosmos 1470 2.7 21:45:09 36° SSW 21:46:40 82° WNW 21:50:35 10° N
Cosmos 2219 Rocket 4.1 21:43:49 10° W 21:48:42 29° NW 21:53:36 10° NNE
Cosmos 1110 Rocket 4.0 21:44:24 10° NNW 21:49:44 84° WSW 21:51:32 43° SSE
Cosmos-2242 4.3 21:46:14 10° SW 21:50:24 43° WNW 21:54:38 10° N
Cosmos 1980 Rocket 4.4 21:47:55 10° NNW 21:51:31 17° N 21:55:06 10° NE
USA 215 3.1 21:49:08 21° ENE 21:53:44 73° SSE 22:00:16 10° WSW
Cosmos 2221 3.3 21:56:52 37° NE 21:56:52 37° NE 21:59:49 10° NNE
NOAA 11 4.3 21:55:31 49° ESE 21:56:24 55° ENE 22:01:43 10° N
Cosmos 1842 Rocket 3.8 21:53:35 14° SSW 21:57:14 67° WNW 22:01:37 10° N
ERS-1 Rocket 3.4 21:54:42 27° S 21:57:24 59° WSW 22:02:23 10° NNW
SeaSat 1 2.3 21:52:34 10° NE 21:57:33 79° ESE 22:02:30 10° SSW
SL-08 RB Rocket 4.2 22:02:45 43° NE 22:02:45 43° NE 22:06:38 10° N
Cosmos 2151 3.7 21:59:12 10° NNW 22:03:17 49° W 22:04:37 35° SW
Cosmos 1666 Rocket 3.5 21:59:42 10° N 22:04:02 73° ENE 22:04:02 73° ENE
Cosmos 2369 Rocket 2.9 21:59:15 10° NW 22:04:38 47° WSW 22:07:12 28° SSW
Cosmos 1733 3.6 22:04:20 55° WSW 22:04:54 64° WNW 22:08:46 10° N
Lacrosse 4 Rocket 4.0 22:04:27 10° NNW 22:07:15 16° N 22:09:31 12° NE
Meteor 2-1 Rocket 4.2 22:10:17 58° SE 22:10:56 63° E 22:16:46 10° NNE
Cosmos 1943 3.7 22:12:48 42° ENE 22:12:48 42° ENE 22:16:47 10° NE
Meteor 2-20 Rocket 4.3 22:05:36 10° N 22:11:49 76° ENE 22:13:13 55° SE
Meteor 2-20 4.4 22:06:38 10° NNW 22:12:51 90° W 22:14:45 48° S
Cosmos 1939 Rocket 4.0 22:12:28 34° SW 22:13:25 40° W 22:17:13 10° NNW
Cosmos 1603 3.8 22:07:44 10° SW 22:13:29 80° WNW 22:19:19 10° NNE
Nimbus 7 Rocket 4.4 22:08:14 10° NNE 22:14:13 58° ESE 22:14:34 57° ESE
Cosmos 1943 Rocket 2.2 22:10:12 10° NW 22:15:52 75° WSW 22:16:56 58° S
Cosmos 1437 Rocket 4.5 22:21:51 26° NNE 22:21:51 26° NNE 22:23:40 10° NNE
Cosmos 2058 3.7 22:17:10 10° NNW 22:21:08 46° W 22:21:26 45° WSW
Cosmos 2333 Rocket 4.4 22:20:20 10° W 22:25:02 25° NNW 22:29:46 10° NNE
Cosmos 2180 Rocket 4.3 22:24:08 62° SSE 22:25:03 73° E 22:31:12 10° NNE
ATLAS 3B R/B 3.8 22:19:08 10° W 22:26:14 44° NNW 22:32:56 10° ENE
Cosmos 2285 Rocket 4.5 22:23:29 10° NNW 22:29:37 45° NE 22:30:19 43° ENE
Cosmos 1302 Rocket 4.0 22:30:12 10° NNW 22:35:24 69° WSW 22:35:32 68° SW
MetOp-B 4.4 22:34:32 53° SW 22:35:27 61° WSW 22:40:47 10° NNW
NOSS 3-2 (A) 4.0 22:34:27 10° WSW 22:40:48 63° NNW 22:47:52 10° NE
Meteor 1-16 Rocket 4.3 22:40:33 48° SW 22:41:54 65° WNW 22:47:14 10° N
H-2A R/B 2.3 22:45:43 59° NNE 22:45:43 59° NNE 22:50:03 10° NNW
Landsat 7 4.3 22:45:59 54° N 22:45:59 54° N 22:49:46 10° NNW
USA 81 4.4 22:46:40 56° NNE 22:46:40 56° NNE 22:50:55 10° N
Sich 1 3.9 22:43:00 10° NNW 22:46:44 48° WNW 22:46:44 48° WNW
Cosmos 2279 Rocket 4.2 22:49:18 42° SW 22:51:25 68° WNW 22:57:38 10° N
Cosmos 1992 Rocket 4.4 22:47:11 10° NNW 22:51:39 58° NNE 22:51:39 58° NNE
Terra 2.7 23:01:20 46° N 23:01:20 46° N 23:04:44 10° NNW
Cosmos 1697 Rocket 4.0 22:55:26 10° NNW 23:00:18 29° NE 23:00:38 29° NE
Cosmos 2266 Rocket 4.1 22:55:49 10° NNW 23:02:12 72° W 23:02:46 67° SW
ATLAS 5 CENTAUR R/B 2.5 22:58:31 10° WSW 23:03:30 56° NNW 23:05:06 41° NNE
Cosmos 1626 4.4 23:01:24 10° NNW 23:03:10 25° NW 23:03:10 25° NW
Cosmos 2369 4.3 22:59:36 10° NNW 23:04:46 47° NNE 23:04:46 47° NNE
H-2A R/B 3.8 23:06:05 27° W 23:06:05 27° W 23:09:54 10° NW
SPOT 1/Viking Rocket 4.2 23:08:13 48° W 23:08:13 48° W 23:13:00 10° NNW
SL-16 R/B 4.3 23:06:48 10° W 23:11:30 26° NNW 23:16:13 10° NNE
CZ-4C R/B 3.6 23:07:18 10° WNW 23:12:58 40° N 23:18:50 12° ENE
NOSS 3-2 (C) 4.2 23:11:50 10° WSW 23:18:10 55° NNW 23:25:13 10° NE
CENTAUR R/B 3.1 23:21:54 52° NE 23:21:54 52° NE 23:27:19 10° NE
ARGOS 4.1 23:24:48 39° W 23:24:48 39° W 23:29:48 10° NNW
Kosmos-2196 4.4 23:19:27 10° WNW 23:29:47 84° SW 23:30:03 82° S
SeaSat 1 4.2 23:30:29 10° NNE 23:34:44 30° NW 23:39:00 10° W
USA 215 3.2 23:36:30 74° NNE 23:36:51 77° N 23:43:24 10° W
Cosmos 1980 Rocket 3.5 23:32:18 10° NNW 23:37:05 32° NNE 23:37:05 32° NNE
Meteor 2-3 Rocket 4.4 23:32:07 10° NNW 23:36:31 51° N 23:36:31 51° N
Lacrosse 4 Rocket 3.8 23:43:29 10° NNW 23:45:51 23° N 23:45:51 23° N
Cosmos 1745 Rocket 4.4 23:41:45 10° N 23:46:51 59° N 23:46:51 59° N
